Location: Haulchin
(50.3172°N, 3.4360°E)
Time: 13:02:27
(UTC+00:00)

Cosmos 1242 Rocket - Pass Details

Date: 23 May 2024
Orbit: 320 x 334 km, 81.1° (Epoch: 18 June)

Event Time Altitude Azimuth Distance (km) Brightness Sun altitude
Exits shadow 01:12:13 14° 127° (SE) 1,152 4.3 -16.4°
Maximum altitude 01:13:39 19° 92° (E) 969 4.3 -16.3°
Drops below altitude 10° 01:15:49 10° 45° (NE) 1,374 5.9 -16.1°
Sets 01:18:10 0° 26° (NNE) 2,233 7.8 -16.0°
